Greenville, MS

1:51 AM CDT on May 29, 2017 (GMT -0500)
Mid Delta Regional

Weather History for KGLH - November, 2011

Change the Weather History Date:

Sunday, November 20, 2011

  Actual Average Record
Temperature  
Mean Temperature 69 °F 52 °F  
Max Temperature 76 °F 63 °F 84 °F (1991)
Min Temperature 62 °F 41 °F 23 °F (1937)
Degree Days  
Heating Degree Days 0 13  
Month to date heating degree days 165 198  
Since 1 July heating degree days 316 312  
Cooling Degree Days 4 0  
Month to date cooling degree days 27 9  
Year to date cooling degree days 2461 2183  
Growing Degree Days 18 (Base 50)    
Moisture  
Dew Point 63 °F    
Average Humidity 84    
Maximum Humidity 93    
Minimum Humidity 74    
Precipitation  
Precipitation 0.00 in 0.18 in 3.39 in (1956)
Month to date precipitation 1.30 2.99  
Year to date precipitation 24.12 44.95  
Sea Level Pressure  
Sea Level Pressure 30.15 in    
Wind  
Wind Speed 10 mph (South)    
Max Wind Speed 18 mph    
Max Gust Speed 22 mph    
Visibility 10 miles    
Events      
T = Trace of Precipitation, MM = Missing Value Source: NWS Daily Summary

Daily Weather History Graph

Daily Weather History Graph

Search for Another Location

Airport or City:

Trip Planner

Search our weather history database for the weather conditions in past years. The results will help you decide how hot, cold, wet, or windy it might be!

Date:

Astronomy

Nov. 20, 2011 Rise Set
Actual Time 6:39 AM CST 4:58 PM CST
Civil Twilight 6:13 AM CST 5:25 PM CST
Nautical Twilight 5:42 AM CST 5:55 PM CST
Astronomical Twilight 5:13 AM CST 6:25 PM CST
Moon 1:22 AM CST (11/20) 1:35 PM CST (11/20)
Length of Visible Light 11h 12m
Length of Day
10h 19m
Waning Crescent, 27% of the Moon is Illuminated
Nov 20
Waning Crescent
Nov 25
New
Dec 2
First Quarter
Dec 10
Full
Dec 17
Last Quarter

Hourly Weather History & Observations

Time (CST) Temp. Dew Point Humidity Pressure Visibility Wind Dir Wind Speed Gust Speed Precip Events Conditions
12:53 AM 64.0 °F 57.9 °F 80% 30.11 in 10.0 mi SSE 11.5 mph - N/A   Overcast
1:53 AM 63.0 °F 57.9 °F 84% 30.10 in 10.0 mi SSE 12.7 mph - N/A   Mostly Cloudy
2:53 AM 63.0 °F 59.0 °F 87% 30.11 in 10.0 mi SSE 12.7 mph - N/A   Clear
3:53 AM 62.1 °F 59.0 °F 90% 30.11 in 10.0 mi South 11.5 mph - N/A   Overcast
4:53 AM 63.0 °F 60.1 °F 90% 30.11 in 10.0 mi South 10.4 mph - N/A   Overcast
5:38 AM 62.6 °F 60.8 °F 94% 30.10 in 10.0 mi South 10.4 mph - N/A   Overcast
5:53 AM 62.6 °F 60.8 °F 94% 30.10 in 10.0 mi South 12.7 mph - N/A   Overcast
6:53 AM 63.0 °F 61.0 °F 93% 30.15 in 10.0 mi South 9.2 mph - N/A   Overcast
7:18 AM 64.4 °F 60.8 °F 88% 30.13 in 9.0 mi South 9.2 mph - N/A   Overcast
7:53 AM 64.0 °F 62.1 °F 93% 30.17 in 9.0 mi South 12.7 mph - N/A   Overcast
8:53 AM 64.9 °F 63.0 °F 93% 30.19 in 7.0 mi South 9.2 mph - N/A   Overcast
9:38 AM 66.2 °F 62.6 °F 88% 30.19 in 9.0 mi South 12.7 mph - N/A   Overcast
9:45 AM 66.2 °F 62.6 °F 88% 30.19 in 9.0 mi South 12.7 mph - N/A   Overcast
9:53 AM 66.9 °F 63.0 °F 87% 30.20 in 10.0 mi South 11.5 mph - N/A   Overcast
10:53 AM 70.0 °F 64.9 °F 84% 30.19 in 10.0 mi South 16.1 mph - N/A   Overcast
11:53 AM 70.0 °F 64.9 °F 84% 30.18 in 10.0 mi South 12.7 mph - N/A   Overcast
12:53 PM 72.0 °F 66.0 °F 81% 30.15 in 10.0 mi South 15.0 mph - N/A   Overcast
1:12 PM 73.4 °F 66.2 °F 78% 30.13 in 10.0 mi South 15.0 mph - N/A   Mostly Cloudy
1:37 PM 75.2 °F 66.2 °F 73% 30.12 in 10.0 mi SSW 12.7 mph - N/A   Overcast
1:53 PM 75.0 °F 66.9 °F 76% 30.14 in 10.0 mi SSW 13.8 mph - N/A   Overcast
2:02 PM 75.2 °F 66.2 °F 73% 30.12 in 10.0 mi SW 10.4 mph - N/A   Overcast
2:53 PM 75.9 °F 66.9 °F 74% 30.14 in 10.0 mi SSW 12.7 mph - N/A   Overcast
3:21 PM 75.2 °F 66.2 °F 73% 30.13 in 10.0 mi SSW 8.1 mph - N/A   Mostly Cloudy
3:53 PM 73.9 °F 66.9 °F 79% 30.14 in 10.0 mi SSW 6.9 mph - N/A   Mostly Cloudy
4:53 PM 73.0 °F 66.0 °F 79% 30.14 in 10.0 mi SSE 5.8 mph - N/A   Clear
5:53 PM 68.0 °F 64.9 °F 90% 30.15 in 10.0 mi SE 4.6 mph - N/A   Clear
6:53 PM 66.0 °F 64.0 °F 93% 30.16 in 10.0 mi SE 6.9 mph - N/A   Clear
7:53 PM 69.8 °F 64.4 °F 83% 30.13 in 10.0 mi SE 8.1 mph - N/A   Clear
8:53 PM 66.9 °F 64.0 °F 90% 30.17 in 10.0 mi South 3.5 mph - N/A   Clear
9:53 PM 66.9 °F 64.0 °F 90% 30.17 in 10.0 mi SSE 3.5 mph - N/A   Clear
10:53 PM 64.0 °F 62.1 °F 93% 30.17 in 10.0 mi SSE 4.6 mph - N/A   Partly Cloudy
11:53 PM 64.9 °F 63.0 °F 93% 30.15 in 9.0 mi South 9.2 mph - N/A   Clear